Time,TemperatureF,DewpointF,PressureIn,WindDirection,WindDirectionDegrees,WindSpeedMPH,WindSpeedGustMPH,Humidity,HourlyPrecipIn,Conditions,Clouds,dailyrainin,SoftwareType,DateUTC
2013-01-03 00:00:00,54.0,50.0,30.00,North,-999,-999.0,-999.0,86,-99.99,,,-99.99,,2013-01-03 00:00:00,
2013-01-03 00:42:00,54.0,50.0,30.00,North,-999,-999.0,-999.0,86,-99.99,,,-99.99,,2013-01-03 00:42:00,
2013-01-03 00:52:00,54.0,50.0,30.00,North,-999,-999.0,-999.0,86,-99.99,,,-99.99,,2013-01-03 00:52:00,
2013-01-03 01:00:00,54.0,50.0,30.01,North,-999,-999.0,-999.0,85,-99.99,,,-99.99,,2013-01-03 01:00:00,
2013-01-03 01:42:00,54.0,50.0,30.01,North,-999,-999.0,-999.0,85,-99.99,,,-99.99,,2013-01-03 01:42:00,
2013-01-03 01:52:00,54.0,50.0,30.01,North,-999,-999.0,-999.0,85,-99.99,,,-99.99,,2013-01-03 01:52:00,
2013-01-03 02:00:00,53.0,49.0,30.02,North,-999,-999.0,-999.0,84,-99.99,,,-99.99,,2013-01-03 02:00:00,
2013-01-03 03:00:00,54.0,49.0,30.05,North,-999,-999.0,-999.0,82,-99.99,,,-99.99,,2013-01-03 03:00:00,
2013-01-03 03:52:00,54.0,49.0,30.05,North,-999,-999.0,-999.0,82,-99.99,,,-99.99,,2013-01-03 03:52:00,
2013-01-03 04:00:00,54.0,48.0,30.06,North,-999,-999.0,-999.0,81,-99.99,,,-99.99,,2013-01-03 04:00:00,
2013-01-03 04:42:00,54.0,48.0,30.06,North,-999,-999.0,-999.0,81,-99.99,,,-99.99,,2013-01-03 04:42:00,
2013-01-03 04:52:00,54.0,48.0,30.06,North,-999,-999.0,-999.0,81,-99.99,,,-99.99,,2013-01-03 04:52:00,
2013-01-03 05:00:00,54.0,48.0,30.08,North,-999,-999.0,-999.0,82,-99.99,,,-99.99,,2013-01-03 05:00:00,
2013-01-03 05:33:00,54.0,48.0,30.08,North,-999,-999.0,-999.0,82,-99.99,,,-99.99,,2013-01-03 05:33:00,
2013-01-03 05:42:00,54.0,48.0,30.08,North,-999,-999.0,-999.0,82,-99.99,,,-99.99,,2013-01-03 05:42:00,
2013-01-03 05:52:00,54.0,48.0,30.08,North,-999,-999.0,-999.0,82,-99.99,,,-99.99,,2013-01-03 05:52:00,
2013-01-03 06:00:00,53.0,48.0,30.10,North,-999,-999.0,-999.0,82,-99.99,,,-99.99,,2013-01-03 06:00:00,
2013-01-03 06:42:00,53.0,48.0,30.10,North,-999,-999.0,-999.0,82,-99.99,,,-99.99,,2013-01-03 06:42:00,
2013-01-03 06:52:00,53.0,48.0,30.10,North,-999,-999.0,-999.0,82,-99.99,,,-99.99,,2013-01-03 06:52:00,
2013-01-03 07:00:00,53.0,48.0,30.13,North,-999,-999.0,-999.0,80,-99.99,,,-99.99,,2013-01-03 07:00:00,
2013-01-03 07:42:00,53.0,48.0,30.13,North,-999,-999.0,-999.0,80,-99.99,,,-99.99,,2013-01-03 07:42:00,
2013-01-03 07:52:00,53.0,48.0,30.13,North,-999,-999.0,-999.0,80,-99.99,,,-99.99,,2013-01-03 07:52:00,
2013-01-03 08:00:00,53.0,46.0,30.15,North,-999,-999.0,-999.0,79,-99.99,,,-99.99,,2013-01-03 08:00:00,
2013-01-03 08:42:00,53.0,46.0,30.15,North,-999,-999.0,-999.0,79,-99.99,,,-99.99,,2013-01-03 08:42:00,
2013-01-03 08:52:00,53.0,46.0,30.15,North,-999,-999.0,-999.0,79,-99.99,,,-99.99,,2013-01-03 08:52:00,
2013-01-03 09:00:00,52.0,46.0,30.18,North,-999,-999.0,-999.0,80,-99.99,,,-99.99,,2013-01-03 09:00:00,
2013-01-03 09:42:00,52.0,46.0,30.18,North,-999,-999.0,-999.0,80,-99.99,,,-99.99,,2013-01-03 09:42:00,
2013-01-03 09:52:00,52.0,46.0,30.18,North,-999,-999.0,-999.0,80,-99.99,,,-99.99,,2013-01-03 09:52:00,
2013-01-03 11:00:00,52.0,46.0,30.24,North,-999,-999.0,-999.0,81,-99.99,,,-99.99,,2013-01-03 11:00:00,
2013-01-03 11:42:00,52.0,46.0,30.24,North,-999,-999.0,-999.0,81,-99.99,,,-99.99,,2013-01-03 11:42:00,
2013-01-03 11:52:00,52.0,46.0,30.24,North,-999,-999.0,-999.0,81,-99.99,,,-99.99,,2013-01-03 11:52:00,
2013-01-03 12:00:00,53.0,46.0,30.26,North,-999,-999.0,-999.0,78,-99.99,,,-99.99,,2013-01-03 12:00:00,
2013-01-03 12:42:00,53.0,46.0,30.26,North,-999,-999.0,-999.0,78,-99.99,,,-99.99,,2013-01-03 12:42:00,
2013-01-03 12:52:00,53.0,46.0,30.26,North,-999,-999.0,-999.0,78,-99.99,,,-99.99,,2013-01-03 12:52:00,
2013-01-03 13:00:00,53.0,47.0,30.27,North,-999,-999.0,-999.0,78,-99.99,,,-99.99,,2013-01-03 13:00:00,
2013-01-03 13:42:00,53.0,47.0,30.27,North,-999,-999.0,-999.0,78,-99.99,,,-99.99,,2013-01-03 13:42:00,
2013-01-03 13:52:00,53.0,47.0,30.27,North,-999,-999.0,-999.0,78,-99.99,,,-99.99,,2013-01-03 13:52:00,
2013-01-03 14:00:00,53.0,47.0,30.29,North,-999,-999.0,-999.0,78,-99.99,,,-99.99,,2013-01-03 14:00:00,
2013-01-03 14:42:00,53.0,47.0,30.29,North,-999,-999.0,-999.0,78,-99.99,,,-99.99,,2013-01-03 14:42:00,
2013-01-03 14:53:00,53.0,47.0,30.29,North,-999,-999.0,-999.0,78,-99.99,,,-99.99,,2013-01-03 14:53:00,
2013-01-03 15:00:00,53.0,47.0,30.30,North,-999,-999.0,-999.0,79,-99.99,,,-99.99,,2013-01-03 15:00:00,
2013-01-03 15:42:00,53.0,47.0,30.30,North,-999,-999.0,-999.0,79,-99.99,,,-99.99,,2013-01-03 15:42:00,
2013-01-03 15:52:00,53.0,47.0,30.30,North,-999,-999.0,-999.0,79,-99.99,,,-99.99,,2013-01-03 15:52:00,
2013-01-03 16:00:00,53.0,48.0,30.32,North,-999,-999.0,-999.0,82,-99.99,,,-99.99,,2013-01-03 16:00:00,
2013-01-03 16:42:00,53.0,48.0,30.32,North,-999,-999.0,-999.0,82,-99.99,,,-99.99,,2013-01-03 16:42:00,
2013-01-03 16:52:00,53.0,48.0,30.32,North,-999,-999.0,-999.0,82,-99.99,,,-99.99,,2013-01-03 16:52:00,
2013-01-03 17:00:00,51.0,47.0,30.33,North,-999,-999.0,-999.0,85,-99.99,,,-99.99,,2013-01-03 17:00:00,
2013-01-03 17:32:00,51.0,47.0,30.33,North,-999,-999.0,-999.0,85,-99.99,,,-99.99,,2013-01-03 17:32:00,
2013-01-03 17:42:00,51.0,47.0,30.33,North,-999,-999.0,-999.0,85,-99.99,,,-99.99,,2013-01-03 17:42:00,
2013-01-03 17:52:00,51.0,47.0,30.33,North,-999,-999.0,-999.0,85,-99.99,,,-99.99,,2013-01-03 17:52:00,
2013-01-03 18:00:00,49.0,46.0,30.32,North,-999,-999.0,-999.0,89,-99.99,,,-99.99,,2013-01-03 18:00:00,
2013-01-03 18:42:00,49.0,46.0,30.32,North,-999,-999.0,-999.0,89,-99.99,,,-99.99,,2013-01-03 18:42:00,
2013-01-03 18:52:00,49.0,46.0,30.32,North,-999,-999.0,-999.0,89,-99.99,,,-99.99,,2013-01-03 18:52:00,
2013-01-03 19:00:00,50.0,47.0,30.32,North,-999,-999.0,-999.0,89,-99.99,,,-99.99,,2013-01-03 19:00:00,
2013-01-03 19:53:00,50.0,47.0,30.32,North,-999,-999.0,-999.0,89,-99.99,,,-99.99,,2013-01-03 19:53:00,
2013-01-03 20:00:00,50.0,47.0,30.31,North,-999,-999.0,-999.0,91,-99.99,,,-99.99,,2013-01-03 20:00:00,
2013-01-03 20:42:00,50.0,47.0,30.31,North,-999,-999.0,-999.0,91,-99.99,,,-99.99,,2013-01-03 20:42:00,
2013-01-03 20:53:00,50.0,47.0,30.31,North,-999,-999.0,-999.0,91,-99.99,,,-99.99,,2013-01-03 20:53:00,
2013-01-03 21:00:00,51.0,49.0,30.32,North,-999,-999.0,-999.0,92,-99.99,,,-99.99,,2013-01-03 21:00:00,
2013-01-03 21:44:00,51.0,49.0,30.32,North,-999,-999.0,-999.0,92,-99.99,,,-99.99,,2013-01-03 21:44:00,
2013-01-03 21:52:00,51.0,49.0,30.32,North,-999,-999.0,-999.0,92,-99.99,,,-99.99,,2013-01-03 21:52:00,
2013-01-03 22:00:00,50.0,48.0,30.32,North,-999,-999.0,-999.0,92,-99.99,,,-99.99,,2013-01-03 22:00:00,
2013-01-03 22:42:00,50.0,48.0,30.32,North,-999,-999.0,-999.0,92,-99.99,,,-99.99,,2013-01-03 22:42:00,
2013-01-03 22:52:00,50.0,48.0,30.32,North,-999,-999.0,-999.0,92,-99.99,,,-99.99,,2013-01-03 22:52:00,
2013-01-03 23:00:00,50.0,48.0,30.31,North,-999,-999.0,-999.0,92,-99.99,,,-99.99,,2013-01-03 23:00:00,
2013-01-03 23:42:00,50.0,48.0,30.31,North,-999,-999.0,-999.0,92,-99.99,,,-99.99,,2013-01-03 23:42:00,
2013-01-03 23:52:00,50.0,48.0,30.31,North,-999,-999.0,-999.0,92,-99.99,,,-99.99,,2013-01-03 23:52:00,